Regional Weather Roundup
Issued by NWS Portland, ME

Current Version | Previous Version | Text Only | Print | Product List | Glossary Off
Versions: 1 2 3 4 5 6 7 8 9 10 11 12 13 14 15 16 17 18 19 20 21 22 23 24 25 26 27 28 29 30 31 32 33 34 35 36 37 38 39 40 41 42 43 44 45 46 47 48 49 50
000 ASUS41 KGYX 280805 RWRGYX WEATHER ROUNDUP FOR MAINE AND NEW HAMPSHIRE NATIONAL WEATHER SERVICE GRAY ME 400 AM EDT FRI APR 28 2017 MEZ002-005-006-010-012-015-018-020-021-024-026-027-029-280900- MAINE CITY SKY/WX TMP DP RH WIND PRES REMARKS PORTLAND FOG 47 47 100 CALM 29.94R VSB 1 SANFORD CLOUDY 50 49 96 CALM 29.94R WISCASSET FOG 48 48 100 CALM 29.96R VSB 3/4 ROCKLAND FOG 45 44 97 CALM 29.96R VSB 1/2 FRYEBURG CLOUDY 53 53 100 SE5 29.92R LEWISTONAUBURN CLOUDY 49 49 100 SE3 29.94R FOG AUGUSTA FOG 49 48 97 S3 29.94R VSB 1/4 WATERVILLE FOG 50 50 100 S3 29.92R VSB 1/2 BANGOR CLOUDY 50 49 96 S3 29.94S FOG GREENVILLE N/A 52 52 100 S6 29.89R MILLINOCKET FOG 53 53 100 SE3 29.93R VSB 1/2 HOULTON CLOUDY 45 45 100 CALM 29.93F PRESQUE ISLE CLOUDY 48 47 96 SE7 29.93F FRENCHVILLE FOG 39 37 92 E12 29.91F VSB 1/4 CARIBOU CLOUDY 49 47 93 SE8 29.92F $$ NHZ002-005-008-009-011-012-014-280900- NEW HAMPSHIRE CITY SKY/WX TMP DP RH WIND PRES REMARKS PORTSMOUTH CLOUDY 50 49 93 CALM 29.93R FOG ROCHESTER CLOUDY 51 49 92 S5 29.92R NASHUA CLOUDY 58 57 97 SE3 29.92S FOG MANCHESTER CLOUDY 57 54 89 SE6 29.91R FOG CONCORD CLOUDY 56 54 93 S5 29.91S LACONIA CLOUDY 52 51 97 E3 29.92R PLYMOUTH CLOUDY 56 55 95 E3 29.91R FOG BERLIN CLOUDY 58 52 80 CALM 29.87S WHITEFIELD CLOUDY 59 53 80 CALM 29.87R JAFFREY CLOUDY 58 58 100 VRB3 29.91S FOG KEENE CLOUDY 59 57 93 S5 29.91R LEBANON CLOUDY 62 58 86 S6 29.87R MT WASHINGTON DRZL/FOG 45 45 100 W40 N/A VSB 0 $$ VTZ005-007-008-280900- VERMONT CITY SKY/WX TMP DP RH WIND PRES REMARKS ST JOHNSBURY N/A 61 56 83 MISG 29.85S MONTPELIER CLOUDY 60 57 89 SW3 29.90R BURLINGTON CLOUDY 66 58 75 S15G25 29.81R $$ MAZ007-012-024-CTZ003-RIZ002-NYZ038-NYZ072-280900- SOUTHERN NEW ENGLAND AND NY CITY SKY/WX TMP DP RH WIND PRES REMARKS BOSTON CLOUDY 57 57 100 SE5 29.93S WORCESTER FOG 56 54 93 SW6 29.92R VSB 1/2 NANTUCKET FOG 51 50 96 SE9 29.96F VSB 1 PROVIDENCE CLOUDY 55 55 100 S7 29.93S FOG HARTFORD DRZL/FOG 58 58 100 S5 29.88F VSB 1 ALBANY CLOUDY 62 57 83 S7 29.87R NEW YORK CITY FOG 55 54 96 NE7 29.87R VSB 1/4 $$ ANZ081-ANZ082-ANZ150-NHZ014-MEZ023>029-280900- COASTAL MARINE OBSERVATIONS STATION/POSITION TIME TEMP WIND PRES WAVE AIR SEA DIR/SP/G HT/PER (UTC) (F) (DEG/KT/KT) (MB) (FT/S) MOUNT DESERT ROC 0800 43 1014.7F MATINICUS ROCK 0700 44 160/ 7/ 7 1013.8F ISLE OF SHOALS 0700 50 160/ 6/ 6 1013.3F JEFFREYS LEDGE 0706 44 N/A 6/ 9 CASHES LEDGE BUO 0650 46 44 1014.6 6/ 9 GEORGES BANK BUO 0650 50 41 1017.0 8/ 9 $$ .............KEY.............. WCI - WIND CHILL TC - TEMPERATURE IN CELSIUS VSB - VISIBILITY IN MILES HX - HEAT INDEX FAIR- INDICATES FEW OR NO CLOUDS BELOW 12,000 FT, WITH NO SIGNIFICANT WEATHER AND/OR OBSTRUCTIONS TO VISIBILITY.

USA.gov is the U.S. government's official web portal to all federal, state and local government web resources and services.